[[{"header":{"parameterUnit":"m.s-1","parameterCategory":1,"la1":30.2992,"la2":30.254,"lo1":-89.0895,"lo2":-89.0443,"dy":0.0025,"dx":0.0025,"nx":19,"ny":19,"refTime":"2026-03-09T09:00:00:Z","depth":0,"parameterNumber":2,"parameterNumberName":"U-component_of_WINDS"},"data":[0,0,0,-3.6079,-3.6082,-3.6265,-3.6266,-3.6488,-3.649,0,0,0,0,0,0,0,0,0,0,0,-3.6017,-3.6018,-3.6078,-3.6083,-3.6265,-3.6266,-3.6487,-3.649,0,0,0,0,0,0,0,0,0,0,0,-3.6017,-3.6018,-3.602,-3.6083,-3.6265,-3.6266,-3.6487,-3.6353,0,0,0,0,0,0,0,0,0,0,-3.6178,-3.6114,-3.6018,-3.602,-3.6084,-3.6265,-3.6266,-3.6347,-3.6362,-3.64,0,-3.6432,0,-3.6464,-3.6504,-3.6505,0,0,0,-3.6088,-3.6102,-3.6158,-3.602,-3.6086,-3.6264,-3.6184,-3.6355,-3.6372,-3.6419,-3.6435,-3.6444,-3.6468,-3.6505,-3.6506,-3.6709,-3.671,0,0,-3.6078,-3.6046,-3.6146,-3.6168,-3.6139,-3.6178,-3.619,-3.6366,-3.6381,-3.6436,-3.6449,-3.6472,-3.6507,-3.6508,-3.6709,-3.6709,0,0,0,-3.6045,-3.6039,-3.6091,-3.6159,-3.6192,-3.6183,-3.6197,-3.6373,-3.6393,-3.6452,-3.6474,-3.6508,-3.651,-3.6708,-3.6709,-3.671,0,0,0,-3.604,-3.602,-3.6086,-3.6068,-3.6189,-3.6285,-3.62,-3.638,-3.6401,-3.6473,-3.6508,-3.6512,-3.6707,-3.6708,-3.6709,-3.6715,0,0,0,-3.6008,-3.6016,-3.604,-3.6066,-3.6144,-3.6283,-3.6313,-3.6386,-3.6415,-3.6505,-3.6513,-3.6707,-3.6708,-3.6707,-3.6713,-3.6758,0,0,0,-3.5964,-3.6039,-3.604,-3.6132,-3.6142,-3.6283,-3.6312,-3.6419,-3.6497,-3.6509,-3.6707,-3.6709,-3.6707,-3.6712,-3.6756,-3.6787,-3.6798,0,0,-3.6041,-3.6047,-3.6105,-3.611,-3.6243,-3.6258,-3.6392,-3.6493,-3.6532,-3.6648,-3.6653,-3.6709,-3.6713,-3.6757,-3.6876,-3.6884,0,0,0,-3.6118,-3.6158,-3.62,-3.6273,-3.6352,-3.6421,-3.6506,-3.6544,-3.6644,-3.6585,-3.674,-3.6744,-3.6771,-3.6787,-3.6794,-3.6819,-3.6716,-3.6716,-3.6716,-3.6177,-3.6223,-3.632,-3.6388,-3.6458,-3.6545,-3.6606,-3.6672,-3.6698,-3.6734,-3.6767,-3.6833,-3.6852,-3.6857,-3.6882,-3.6791,-3.6791,-3.6791,-3.6791,-3.6291,-3.6354,-3.6388,-3.6493,-3.6542,-3.6632,-3.672,-3.6735,-3.6826,-3.6812,-3.6838,-3.6816,-3.6865,-3.6889,-3.6791,-3.6791,-3.6791,-3.6791,-3.6791,-3.6332,-3.637,-3.6416,-3.6525,-3.6605,-3.6673,-3.6758,-3.68,-3.684,-3.6867,-3.6906,-3.6906,-3.6909,-3.6883,-3.6884,-3.6884,-3.6884,-3.6884,-3.6884,-3.6354,-3.6406,-3.6473,-3.6565,-3.6617,-3.6692,-3.6783,-3.6836,-3.6905,-3.6928,-3.6929,-3.6949,-3.6862,-3.6837,-3.6888,-3.6887,-3.6887,-3.6887,-3.6886,-3.6446,-3.6433,-3.6535,-3.6587,-3.67,-3.6776,-3.683,-3.6935,-3.6985,-3.7026,-3.7043,-3.6973,-3.6982,-3.6976,-3.6956,-3.7034,-3.7034,-3.7034,-3.7034,-3.6478,-3.6488,-3.6602,-3.6683,-3.6768,-3.6828,-3.6942,-3.7015,-3.7088,-3.7122,-3.7118,-3.7096,-3.7088,-3.7102,-3.7094,-3.7075,-3.7182,-3.7182,-3.7182,-3.6536,-3.6556,-3.6644,-3.6716,-3.6808,-3.6885,-3.6994,-3.7087,-3.7167,-3.7189,-3.7149,-3.7143,-3.7108,-3.7094,-3.711,-3.7097,-3.7063,0,0]},{"header":{"parameterUnit":"m.s-1","parameterCategory":1,"la1":30.2992,"la2":30.254,"lo1":-89.0895,"lo2":-89.0443,"dy":0.0025,"dx":0.0025,"nx":19,"ny":19,"refTime":"2026-03-09T09:00:00:Z","depth":0,"parameterNumber":3,"parameterNumberName":"V-component_of_WINDS"},"data":[0,0,0,3.8353,3.8356,3.8493,3.8493,3.8658,3.866,0,0,0,0,0,0,0,0,0,0,0,3.8307,3.8308,3.8352,3.8356,3.8493,3.8493,3.8658,3.866,0,0,0,0,0,0,0,0,0,0,0,3.8307,3.8308,3.8309,3.8356,3.8492,3.8493,3.8658,3.8558,0,0,0,0,0,0,0,0,0,0,3.8426,3.838,3.8308,3.8309,3.8357,3.8492,3.8493,3.8553,3.8564,3.8593,0,3.8618,0,3.8642,3.867,3.8671,0,0,0,3.8359,3.8371,3.8413,3.831,3.8358,3.8492,3.8432,3.8559,3.8572,3.8607,3.8621,3.8627,3.8645,3.8671,3.8672,3.8835,3.8835,0,0,3.8351,3.8329,3.8404,3.842,3.84,3.8427,3.8436,3.8567,3.8579,3.8621,3.8631,3.8647,3.8673,3.8674,3.8834,3.8835,0,0,0,3.8327,3.8323,3.8362,3.8413,3.8439,3.8431,3.8441,3.8573,3.8588,3.8633,3.8649,3.8673,3.8675,3.8834,3.8835,3.8846,0,0,0,3.8323,3.831,3.8359,3.8346,3.8436,3.8508,3.8445,3.8579,3.8595,3.8649,3.8674,3.8677,3.8833,3.8834,3.8845,3.8855,0,0,0,3.83,3.8307,3.8326,3.8345,3.8403,3.8507,3.8529,3.8583,3.8604,3.8671,3.8677,3.8833,3.8834,3.8843,3.8853,3.8894,0,0,0,3.8268,3.8331,3.8325,3.8402,3.8402,3.8513,3.8528,3.8611,3.867,3.8674,3.8833,3.8835,3.8843,3.8851,3.8892,3.8925,3.8937,0,0,3.8335,3.8338,3.8385,3.8384,3.8491,3.8494,3.8603,3.8675,3.87,3.8788,3.8793,3.8845,3.8852,3.8893,3.9007,3.9016,0,0,0,3.8398,3.8432,3.8465,3.8522,3.8581,3.8634,3.8693,3.8721,3.8797,3.8742,3.8871,3.8876,3.8901,3.8918,3.8925,3.8949,3.8841,3.8841,3.8841,3.8459,3.8492,3.8573,3.8622,3.8677,3.874,3.8787,3.8834,3.8847,3.8878,3.8904,3.897,3.8989,3.8995,3.9019,3.8923,3.8923,3.8923,3.8923,3.8561,3.8615,3.8636,3.8722,3.8755,3.8827,3.889,3.8898,3.897,3.8951,3.8975,3.8953,3.9004,3.9026,3.8925,3.8924,3.8924,3.8924,3.8924,3.8606,3.8638,3.8672,3.876,3.8824,3.8871,3.8941,3.8967,3.8993,3.9016,3.9048,3.9048,3.9053,3.903,3.903,3.903,3.903,3.903,3.9031,3.8639,3.8678,3.8734,3.8806,3.8848,3.8906,3.8972,3.9013,3.9066,3.908,3.908,3.9092,3.9002,3.898,3.9034,3.9034,3.9033,3.9033,3.9033,3.8732,3.8716,3.8803,3.8846,3.8934,3.8997,3.9031,3.9114,3.9152,3.9185,3.9193,3.9122,3.9126,3.9121,3.9102,3.9185,3.9185,3.9185,3.9185,3.877,3.8777,3.8874,3.894,3.9008,3.905,3.9148,3.92,3.9251,3.9277,3.9269,3.9247,3.924,3.9249,3.924,3.9224,3.9335,3.9335,3.9335,3.8831,3.8845,3.8924,3.8977,3.9048,3.9109,3.9203,3.9278,3.9332,3.9342,3.9299,3.9292,3.9257,3.9244,3.9252,3.9237,3.9208,0,0]}]]